{"data":{"norad_id":66084,"epoch":"2026-09-20T17:34:44.605344Z","epoch_age_seconds":82917,"freshness":"FRESH","line1":"1 66084U 25235AC  26263.73246071  .00022055  00000+0  66196-3 0  9994","line2":"2 66084  53.1595  58.5850 0001329  85.0137 275.1017 15.34400016 52794","mean_motion":15.34400016,"eccentricity":0.0001329,"inclination_deg":53.1595,"raan_deg":58.585,"arg_perigee_deg":85.0137,"mean_anomaly_deg":275.1017,"bstar":0.00066196,"rev_number":5279,"period_min":93.847757102735,"perigee_km":461.79404499013,"apogee_km":463.61234031334,"semimajor_km":6840.8401926517,"source":"CELESTRAK","updated_at":"2026-09-21T09:00:35.799499Z"}}